Reading, PA

6:53 PM EDT on June 22, 2017 (GMT -0400)
Reading Regional-Spaatz

Weather History for KRDG - March, 2014

Change the Weather History Date:

Saturday, March 29, 2014

  Actual Average Record
Temperature  
Mean Temperature 47 °F 46 °F  
Max Temperature 51 °F 56 °F 87 °F (1907)
Min Temperature 42 °F 36 °F 12 °F (1923)
Degree Days  
Heating Degree Days 18 19  
Month to date heating degree days 877 704  
Since 1 July heating degree days 5187 4746  
Cooling Degree Days 0 0  
Month to date cooling degree days 0 0  
Year to date cooling degree days 0 0  
Moisture  
Dew Point 43 °F    
Average Humidity 80    
Maximum Humidity 93    
Minimum Humidity 66    
Precipitation  
Precipitation 0.89 in 0.13 in 1.33 in (1983)
Month to date precipitation 1.62 3.20  
Year to date precipitation 8.30 8.73  
Sea Level Pressure  
Sea Level Pressure 29.96 in    
Wind  
Wind Speed 7 mph (NE)    
Max Wind Speed 16 mph    
Max Gust Speed 22 mph    
Visibility 6 miles    
Events Rain    
T = Trace of Precipitation, MM = Missing Value Source: NWS Daily Summary

Daily Weather History Graph

Daily Weather History Graph

Search for Another Location

Airport or City:

Trip Planner

Search our weather history database for the weather conditions in past years. The results will help you decide how hot, cold, wet, or windy it might be!

Date:

Astronomy

Mar. 29, 2014 Rise Set
Actual Time 6:52 AM EDT 7:25 PM EDT
Civil Twilight 6:25 AM EDT 7:52 PM EDT
Nautical Twilight 5:52 AM EDT 8:25 PM EDT
Astronomical Twilight 5:19 AM EDT 8:58 PM EDT
Moon 5:59 AM EDT (3/29) 6:27 PM EDT (3/29)
Length of Visible Light 13h 27m
Length of Day
12h 32m
Waning Crescent, 2% of the Moon is Illuminated
Mar 29
Waning Crescent
Mar 30
New
Apr 7
First Quarter
Apr 15
Full
Apr 22
Last Quarter

Hourly Weather History & Observations

Time (EDT) Temp. Windchill Dew Point Humidity Pressure Visibility Wind Dir Wind Speed Gust Speed Precip Events Conditions
12:54 AM 53.1 °F - 48.0 °F 83% 30.12 in 10.0 mi Calm Calm - N/A   Partly Cloudy
1:54 AM 48.9 °F - 46.9 °F 93% 30.12 in 7.0 mi North 5.8 mph - N/A   Clear
2:54 AM 48.0 °F - 45.0 °F 89% 30.12 in 10.0 mi NNW 5.8 mph - N/A   Clear
3:54 AM 46.9 °F - 42.1 °F 83% 30.11 in 10.0 mi North 4.6 mph - N/A   Clear
4:54 AM 46.0 °F 44.8 °F 42.1 °F 86% 30.12 in 10.0 mi NNW 3.5 mph - N/A   Clear
5:54 AM 44.1 °F 41.5 °F 39.9 °F 85% 30.12 in 10.0 mi North 4.6 mph - N/A   Clear
6:54 AM 46.0 °F 42.5 °F 41.0 °F 83% 30.14 in 10.0 mi North 6.9 mph - N/A   Clear
7:17 AM 46.0 °F 43.9 °F 41.0 °F 83% 30.12 in 10.0 mi NNE 4.6 mph - N/A   Mostly Cloudy
7:54 AM 46.9 °F - 39.9 °F 77% 30.15 in 10.0 mi NNE 4.6 mph - N/A   Overcast
8:50 AM 48.2 °F - 39.2 °F 71% 30.13 in 10.0 mi NNE 6.9 mph - N/A   Overcast
8:54 AM 46.9 °F - 39.9 °F 77% 30.14 in 10.0 mi NNE 6.9 mph - N/A   Overcast
9:27 AM 48.0 °F - 39.0 °F 71% 30.12 in 10.0 mi NE 9.2 mph - N/A   Overcast
9:54 AM 48.0 °F - 37.9 °F 68% 30.14 in 10.0 mi NE 6.9 mph - N/A   Overcast
10:54 AM 46.9 °F - 39.0 °F 74% 30.13 in 8.0 mi NE 4.6 mph - 0.01 in Rain Light Rain
11:21 AM 45.0 °F 41.8 °F 42.1 °F 90% 30.10 in 2.0 mi North 5.8 mph - 0.01 in Rain Light Rain
11:44 AM 46.0 °F 43.1 °F 43.0 °F 89% 30.09 in 5.0 mi NE 5.8 mph - 0.02 in Rain Light Rain
11:54 AM 46.0 °F 43.1 °F 43.0 °F 89% 30.11 in 5.0 mi NE 5.8 mph - 0.02 in Rain Light Rain
12:30 PM 46.0 °F 43.1 °F 44.1 °F 93% 30.06 in 2.5 mi ENE 5.8 mph - 0.01 in Rain Light Rain
12:43 PM 46.0 °F 41.9 °F 43.0 °F 89% 30.06 in 3.0 mi East 8.1 mph - 0.02 in Rain Light Rain
12:54 PM 46.9 °F - 43.0 °F 86% 30.07 in 5.0 mi ENE 11.5 mph 19.6 mph 0.02 in Rain Light Rain
1:54 PM 46.9 °F - 44.1 °F 90% 30.02 in 3.0 mi East 10.4 mph 19.6 mph 0.01 in   Overcast
2:05 PM 46.9 °F - 44.1 °F 90% 30.00 in 2.5 mi ENE 12.7 mph - N/A   Overcast
2:54 PM 46.9 °F - 44.1 °F 90% 29.98 in 2.5 mi East 11.5 mph 19.6 mph 0.01 in Rain Rain
3:54 PM 46.9 °F - 44.1 °F 90% 29.94 in 2.5 mi East 9.2 mph - 0.10 in Rain Light Rain
4:54 PM 46.9 °F - 44.1 °F 90% 29.90 in 2.5 mi Variable 5.8 mph - 0.11 in Rain Rain
5:54 PM 48.0 °F - 44.1 °F 86% 29.87 in 2.5 mi ENE 6.9 mph - 0.05 in Rain Light Rain
6:54 PM 48.0 °F - 45.0 °F 89% 29.83 in 2.0 mi ENE 9.2 mph - 0.17 in Rain Heavy Rain
7:01 PM 48.0 °F - 45.0 °F 89% 29.81 in 1.8 mi East 8.1 mph - 0.03 in Rain Heavy Rain
7:10 PM 46.9 °F - 45.0 °F 93% 29.77 in 2.5 mi East 13.8 mph 20.7 mph 0.05 in Rain Rain
7:50 PM 48.2 °F - 44.6 °F 87% 29.76 in 10.0 mi East 8.1 mph - 0.08 in Rain Light Rain
7:54 PM 48.0 °F - 45.0 °F 89% 29.77 in 10.0 mi ENE 12.7 mph 18.4 mph 0.08 in Rain Light Rain
8:24 PM 48.0 °F - 45.0 °F 89% 29.73 in 10.0 mi ENE 10.4 mph - 0.01 in Rain Rain
8:54 PM 48.0 °F - 45.0 °F 89% 29.75 in 7.0 mi ENE 6.9 mph - 0.05 in Rain Rain
9:22 PM 48.0 °F - 45.0 °F 89% 29.71 in 6.0 mi ENE 6.9 mph - 0.02 in Rain Light Rain
9:54 PM 48.0 °F - 45.0 °F 89% 29.69 in 10.0 mi Variable 4.6 mph - 0.02 in   Overcast
10:54 PM 48.0 °F - 46.0 °F 93% 29.65 in 4.0 mi Calm Calm - 0.12 in Rain Rain
11:17 PM 48.0 °F - 46.0 °F 93% 29.62 in 2.5 mi Calm Calm - 0.07 in Rain Rain
11:27 PM 46.9 °F - 46.0 °F 97% 29.62 in 4.0 mi NW 3.5 mph - 0.08 in Rain Light Rain
11:54 PM 48.0 °F - 46.0 °F 93% 29.62 in 4.0 mi ENE 4.6 mph - 0.09 in Rain Rain